Location: Spring Creek
(38.2870°N, 100.2160°W)
Time: 08:57:07
(UTC+00:00)

Cosmos 1151 Rocket - Pass Details

Date: 08 May 2021
Orbit: 591 x 616 km, 82.5° (Epoch: 21 June)

Event Time Altitude Azimuth Distance (km) Brightness Sun altitude
Exits shadow 03:13:21 30° 107° (ESE) 1,091 3.8 -16.8°
Maximum altitude 03:13:57 32° 90° (E) 1,061 3.8 -16.9°
Drops below altitude 10° 03:17:50 10° 28° (NNE) 1,977 5.8 -17.5°
Sets 03:20:14 0° 18° (NNE) 2,890 6.8 -17.9°
